Fort Patrick Henry Observed Data For Previous 48 Hours

Caption
Day and Hour Reservoir Elevation (behind dam)* Tailwater Elevation (below dam)* Average Hourly Discharge*
6/20/2018 2 AM EDT 1,260.26 1,191.42 305
6/20/2018 3 AM EDT 1,260.20 1,188.11 2,519
6/20/2018 4 AM EDT 1,260.46 1,186.75 0
6/20/2018 5 AM EDT 1,260.64 1,189.06 303
6/20/2018 6 AM EDT 1,260.77 1,187.86 2,543
6/20/2018 7 AM EDT 1,261.08 1,186.72 0
6/20/2018 8 AM EDT 1,260.92 1,191.30 282
6/20/2018 9 AM EDT 1,260.79 1,187.99 2,526
6/20/2018 10 AM EDT 1,260.83 1,186.72 0
6/20/2018 11 AM EDT 1,260.69 1,191.37 293
6/20/2018 12 PM EDT 1,260.62 1,187.99 2,535
6/20/2018 1 PM EDT 1,260.59 1,186.72 0
6/20/2018 2 PM EDT 1,260.79 1,191.34 298
6/20/2018 3 PM EDT 1,260.83 1,192.61 3,354
6/20/2018 4 PM EDT 1,260.74 1,192.61 3,360
6/20/2018 5 PM EDT 1,260.70 1,192.74 3,449
6/20/2018 6 PM EDT 1,260.63 1,192.75 3,480
6/20/2018 7 PM EDT 1,260.60 1,192.75 3,469
6/20/2018 8 PM EDT 1,260.54 1,192.73 3,471
6/20/2018 9 PM EDT 1,260.49 1,192.77 3,460
6/20/2018 10 PM EDT 1,260.45 1,192.75 3,457
6/20/2018 11 PM EDT 1,260.39 1,192.76 3,460
6/21/2018 12 AM EDT 1,260.32 1,186.88 93
6/21/2018 1 AM EDT 1,260.25 1,192.01 525
6/21/2018 2 AM EDT 1,260.19 1,188.10 2,545
6/21/2018 3 AM EDT 1,260.18 1,186.73 0
6/21/2018 4 AM EDT 1,260.08 1,191.36 303
6/21/2018 5 AM EDT 1,260.00 1,188.06 2,509
6/21/2018 6 AM EDT 1,259.91 1,186.72 0
6/21/2018 7 AM EDT 1,259.78 1,191.34 297
6/21/2018 8 AM EDT 1,259.70 1,188.07 2,524
6/21/2018 9 AM EDT 1,260.04 1,186.71 0
6/21/2018 10 AM EDT 1,260.27 1,191.37 303
6/21/2018 11 AM EDT 1,260.33 1,192.67 3,414
6/21/2018 12 PM EDT 1,260.31 1,192.69 3,417
6/21/2018 1 PM EDT 1,260.30 1,192.73 3,445
6/21/2018 2 PM EDT 1,260.28 1,192.75 3,447
6/21/2018 3 PM EDT 1,260.25 1,192.73 3,436
6/21/2018 4 PM EDT 1,260.23 1,192.72 3,443
6/21/2018 5 PM EDT 1,260.23 1,192.74 3,440
6/21/2018 6 PM EDT 1,260.22 1,192.76 3,451
6/21/2018 7 PM EDT 1,260.19 1,192.71 3,438
6/21/2018 8 PM EDT 1,260.17 1,192.72 3,434
6/21/2018 9 PM EDT 1,260.16 1,192.75 3,446
6/21/2018 10 PM EDT 1,260.15 1,192.76 3,440
6/21/2018 11 PM EDT 1,260.11 1,192.73 3,447
6/22/2018 12 AM EDT 1,260.10 1,192.71 3,445
6/22/2018 1 AM EDT 1,260.41 1,186.89 89

Elevations are in feet above sea level. Discharges are in cubic feet per second and are reported at the end of the hour.